Weather Roundup
Issued by NWS Springfield, MO

Home | Current Version | Previous Version | Text Only | Print | Product List | Glossary On
Versions: 1 2 3 4 5 6 7 8 9 10 11 12 13 14 15 16 17 18 19 20 21 22 23 24 25 26 27 28 29 30 31 32 33 34 35 36 37 38 39 40 41 42 43 44 45 46 47 48 49 50
000
NZUS99 KSGF 251359
HRRSGF

HOURLY WEATHER
NATIONAL WEATHER SERVICE SPRINGFIELD MO
900 AM CDT FRI JUL 25 2014

......SGF CWA......

CITY           SKY/WX    TMP DP  RH WIND       PRES   REMARKS
SPRINGFIELD    CLOUDY    72  66  81 S15       30.02F
JOPLIN         SUNNY     78  70  76 S17G26    30.00R
WEST PLAINS    MOSUNNY   69  59  70 S7        30.10S
ROLLA          PTSUNNY   71  58  63 S12       30.04S
OSAGE BEACH    PTSUNNY   70  57  64 S9        30.02S
BRANSON        MOSUNNY   75  64  69 S6        30.08R

......SURROUNDING SGF CWA......

CITY           SKY/WX    TMP DP  RH WIND       PRES   REMARKS
CHANUTE        MOSUNNY   79  70  74 SW20G25   29.95R
PARSONS        SUNNY     78  71  79 S13       29.97S
COFFEYVILLE    SUNNY     78  72  81 S14       29.97S
EMPORIA        PTSUNNY   78  69  73 S15       29.90F
SILOAM SPRINGS CLOUDY    73  66  78 S13       30.06S
HARRISON AR    SUNNY     72  66  81 S12       30.08S

......KANSAS AND MISSOURI......

CITY           SKY/WX    TMP DP  RH WIND       PRES   REMARKS
KANSAS CTY INT PTSUNNY   77  70  79 S21       29.87F
DOWNTOWN KC    MOSUNNY   76  68  76 S14       29.88F
COLUMBIA       PTSUNNY   69  58  67 S15       30.00F
SEDALIA        PTSUNNY   75  63  66 S14       29.97F
ST JOSEPH      CLOUDY    76  70  82 S17       29.83F
ST LOUIS       PTSUNNY   72  59  63 S5        30.07F
SPIRIT OF STL  PTSUNNY   70  59  68 S3        30.06F
KIRKSVILLE     CLOUDY    63  59  87 SE14      29.97F
WICHITA        MOSUNNY   80  67  64 S18G26    29.91F
TOPEKA         PTSUNNY   82  71  69 S13G22    29.86F
OLATHE         MOSUNNY   76  70  82 S14       29.90F

......TENNESSEE......

CITY           SKY/WX    TMP DP  RH WIND       PRES   REMARKS
MEMPHIS        MOSUNNY   74  61  63 SE3       30.07R
NASHVILLE      MOSUNNY   74  62  66 E3        30.10R

......ARKANSAS.......

CITY           SKY/WX    TMP DP  RH WIND       PRES   REMARKS
FAYETTEVILLE   CLOUDY    74  70  87 S13       30.07R
FT SMITH       MOSUNNY   77  72  84 E3        30.04R
LITTLE ROCK    MOSUNNY   74  62  66 SW6       30.09R

......OKLAHOMA.......

CITY           SKY/WX    TMP DP  RH WIND       PRES   REMARKS
TULSA          PTSUNNY   79  72  79 S15       29.98R
PONCA CITY     SUNNY     81  69  67 VRB7G16   29.95S
MCALESTER      PTSUNNY   77  71  82 S10G17    30.04R
OKLAHOMA CITY  SUNNY     79  69  71 S14       30.00R

......IOWA............

CITY           SKY/WX    TMP DP  RH WIND       PRES   REMARKS
DES MOINES     CLOUDY    67  58  72 SE12      29.94R
QUAD CITIES    CLOUDY    63  58  83 S13G18    29.98F

......ILLINOIS........

CITY           SKY/WX    TMP DP  RH WIND       PRES   REMARKS
QUINCY         TSTM      62  59  90 E10       30.07R FOG
CHICAGO        CLOUDY    65  52  62 SW8       30.05F




USA.gov is the U.S. government's official web portal to all federal, state and local government web resources and services.